Weather History for KWMC - October, 2012

Change the Weather History Date:

Tuesday, October 2, 2012

  Actual Average Record
Temperature  
Mean Temperature 61 °F 54 °F  
Max Temperature 88 °F 74 °F 91 °F (2010)
Min Temperature 33 °F 34 °F 19 °F (1959)
Degree Days  
Heating Degree Days 4 11  
Month to date heating degree days 8 22  
Since 1 July heating degree days 86 226  
Cooling Degree Days 0 0  
Month to date cooling degree days 0 0  
Year to date cooling degree days 681 541  
Growing Degree Days 10 (Base 50)    
Moisture  
Dew Point 21 °F    
Average Humidity 28    
Maximum Humidity 48    
Minimum Humidity 8    
Precipitation  
Precipitation 0.00 in 0.02 in 0.90 in (1939)
Month to date precipitation 0.00 0.04  
Year to date precipitation 3.41 5.84  
Snow  
Snow 0.00 in 0.00 in 0.10 in (1916)
Month to date snowfall 0.0 0.0  
Since 1 July snowfall 0.0 T  
Since 1 September snowfall 0.0 T  
Snow Depth 0.00 in    
Sea Level Pressure  
Sea Level Pressure 29.98 in    
Wind  
Wind Speed 6 mph (WSW)    
Max Wind Speed 22 mph    
Max Gust Speed 29 mph    
Visibility 10 miles    
Events      
T = Trace of Precipitation, MM = Missing Value Source: NWS Daily Summary

Daily Weather History Graph

Daily Weather History Graph

Search for Another Location

Airport or City:

Trip Planner

Search our weather history database for the weather conditions in past years. The results will help you decide how hot, cold, wet, or windy it might be!

Date:

Astronomy

Oct. 02, 2012 Rise Set
Actual Time 6:49 AM PDT 6:30 PM PDT
Civil Twilight 6:22 AM PDT 6:57 PM PDT
Nautical Twilight 5:50 AM PDT 7:29 PM PDT
Astronomical Twilight 5:18 AM PDT 8:01 PM PDT
Moon 7:44 PM PDT (10/2) 9:22 AM PDT (10/2)
Length of Visible Light 12h 35m
Length of Day
11h 41m
Waning Gibbous, 93% of the Moon is Illuminated
Oct 2
Waning Gibbous
Oct 8
Last Quarter
Oct 15
New
Oct 21
First Quarter
Oct 29
Full

Hourly Weather History & Observations

Time (PDT) Temp. Windchill Dew Point Humidity Pressure Visibility Wind Dir Wind Speed Gust Speed Precip Events Conditions
12:56 AM 45.0 °F 41.2 °F 19.9 °F 37% 30.04 in 10.0 mi SSE 6.9 mph - N/A   Clear
1:56 AM 43.0 °F 40.3 °F 19.9 °F 40% 30.04 in 10.0 mi SSE 4.6 mph - N/A   Clear
2:56 AM 42.1 °F 38.4 °F 21.0 °F 43% 30.04 in 10.0 mi South 5.8 mph - N/A   Clear
3:56 AM 37.9 °F 34.4 °F 18.0 °F 45% 30.04 in 10.0 mi ESE 4.6 mph - N/A   Clear
4:56 AM 39.9 °F - 19.0 °F 43% 30.03 in 10.0 mi Calm Calm - N/A   Clear
5:56 AM 37.0 °F - 17.1 °F 44% 30.04 in 10.0 mi Calm Calm - N/A   Clear
6:56 AM 37.0 °F - 19.9 °F 50% 30.08 in 10.0 mi Calm Calm - N/A   Clear
7:56 AM 44.1 °F - 19.9 °F 38% 30.08 in 10.0 mi Calm Calm - N/A   Clear
8:56 AM 59.0 °F - 26.1 °F 28% 30.06 in 10.0 mi Calm Calm - N/A   Clear
9:56 AM 66.9 °F - 27.0 °F 22% 30.05 in 10.0 mi Calm Calm - N/A   Clear
10:56 AM 75.9 °F - 24.1 °F 15% 30.02 in 10.0 mi Calm Calm - N/A   Clear
11:56 AM 82.0 °F - 23.0 °F 11% 29.98 in 10.0 mi Calm Calm - N/A   Clear
12:56 PM 87.1 °F - 23.0 °F 10% 29.95 in 10.0 mi WSW 10.4 mph 18.4 mph N/A   Clear
1:56 PM 87.1 °F - 21.9 °F 9% 29.93 in 10.0 mi West 18.4 mph 26.5 mph N/A   Clear
2:56 PM 86.0 °F - 19.9 °F 9% 29.91 in 10.0 mi WNW 17.3 mph 28.8 mph N/A   Clear
3:56 PM 87.1 °F - 19.9 °F 8% 29.91 in 10.0 mi West 17.3 mph 23.0 mph N/A   Clear
4:56 PM 84.9 °F - 23.0 °F 10% 29.90 in 10.0 mi WNW 17.3 mph 25.3 mph N/A   Clear
5:56 PM 82.0 °F - 23.0 °F 11% 29.90 in 10.0 mi West 6.9 mph - N/A   Clear
6:56 PM 66.9 °F - 21.9 °F 18% 29.93 in 10.0 mi Calm Calm - N/A   Clear
7:56 PM 59.0 °F - 19.9 °F 22% 29.94 in 10.0 mi West 6.9 mph - N/A   Clear
8:56 PM 55.9 °F - 18.0 °F 23% 29.93 in 10.0 mi NNW 11.5 mph - N/A   Clear
9:56 PM 62.1 °F - 21.9 °F 21% 29.91 in 10.0 mi WNW 10.4 mph - 0.01 in   Clear
10:56 PM 55.0 °F - 21.0 °F 27% 29.92 in 10.0 mi West 8.1 mph - N/A   Clear
11:56 PM 54.0 °F - 21.9 °F 29% 29.93 in 10.0 mi West 5.8 mph - N/A   Clear